Location: Kellogg
(38.0159°N, 90.0546°W)
Time: 21:58:35
(UTC+00:00)

Envisat - Pass Details

Date: 10 August 2024
Orbit: 762 x 764 km, 98.3° (Epoch: 08 September)

Event Time Altitude Azimuth Distance (km) Brightness Sun altitude
Rises 08:31:21 0° 22° (NNE) 3,233 7.4 -26.6°
Reaches altitude 10° 08:33:51 10° 31° (NNE) 2,302 6.5 -26.3°
Maximum altitude 08:38:28 35° 97° (E) 1,213 4.2 -25.7°
Enters shadow 08:40:31 25° 141° (SE) 1,487 4.4 -25.4°
